Location: Unspecified
(0.0000°N, 0.0000°E)
Time: 10:52:56
(UTC+00:00)

SICH 2 - Pass Details

Date: 05 June 2023
Orbit: 674 x 694 km, 97.8° (Epoch: 22 September)

Event Time Altitude Azimuth Distance (km) Brightness Sun altitude
Exits shadow 18:59:29 - 172° (S) 2,948 ? -14.0°
Reaches altitude 10° 19:01:28 10° 173° (S) 2,133 ? -14.5°
Maximum altitude 19:06:08 75° 258° (WSW) 708 ? -15.6°
Drops below altitude 10° 19:10:44 10° 344° (NNW) 2,110 ? -16.6°
Sets 19:12:58 0° 345° (NNW) 3,019 ? -17.1°
